| Back to River Map | <<< Previous Forecast Point | | | Next Forecast Point >>> | Printer Version | Graph Version |  |
|
CHEROKEE CANAL - RICHVALE (RCVC1)
| Latitude: 39.47º N | Longitude: 121.74º W | Elevation: 106 Feet | | Forecast Type: Unofficial Location |
| Location: Butte County in California | Bulletin Group: Lower Sacramento | River Group: Lower Sacramento |
| Issuance Time: | May 02 2026 at 8:10 AM PDT | Next Issuance: | May 03 2026 at 9:00 AM PDT
| |
| Action/Monitor: 99.3 Feet | Minor Flood: 103.6 Feet | Moderate Flood: N/A | Major Flood: N/A |
# Tabular Observed and Forecast Hydrograph Information
#
# Location: Cherokee Canal - Richvale (RCVC1)
#
# File Generation Time: 05/02/2026 at 08:12 AM PDT
# Data Interval: 1 Hour
#
# Most Recent Date & Time of Maximum Observed: 04/27/2026 at 12:00 PM PDT
# Maximum Observed Stage: 95.50 Feet
# Maximum Observed Flow: 38 cfs
#
# Earliest Date & Time of Maximum Forecast: 05/05/2026 at 11:00 AM PDT
# Maximum Forecast Stage: 95.44 Feet
# Maximum Forecast Flow: 34 cfs
#
# OBSERVED
#
# Date & Time (Local) Stage (Feet) Flow (cfs) Trend Observed Status
# ---------------------------------------------------------------------------------
04/27/2026 08 AM PDT 95.50 38 Normal
04/27/2026 09 AM PDT 95.50 38 0 Normal
04/27/2026 10 AM PDT 95.50 38 0 Normal
04/27/2026 11 AM PDT 95.50 38 0 Normal
04/27/2026 12 PM PDT 95.50 38 0 Normal
04/27/2026 01 PM PDT 95.49 37 - Normal
04/27/2026 02 PM PDT 95.49 37 0 Normal
04/27/2026 03 PM PDT 95.49 37 0 Normal
04/27/2026 04 PM PDT 95.48 36 - Normal
04/27/2026 05 PM PDT 95.48 36 0 Normal
04/27/2026 06 PM PDT 95.47 36 - Normal
04/27/2026 07 PM PDT 95.46 35 - Normal
04/27/2026 08 PM PDT 95.45 34 - Normal
04/27/2026 09 PM PDT 95.44 34 - Normal
04/27/2026 10 PM PDT 95.43 33 - Normal
04/27/2026 11 PM PDT 95.41 32 - Normal
04/28/2026 12 AM PDT 95.40 31 - Normal
04/28/2026 01 AM PDT 95.39 30 - Normal
04/28/2026 02 AM PDT 95.38 30 - Normal
04/28/2026 03 AM PDT 95.38 30 0 Normal
04/28/2026 04 AM PDT 95.36 28 - Normal
04/28/2026 05 AM PDT 95.36 28 0 Normal
04/28/2026 06 AM PDT 95.36 28 0 Normal
04/28/2026 07 AM PDT 95.36 28 0 Normal
04/28/2026 08 AM PDT 95.37 29 + Normal
04/28/2026 09 AM PDT 95.37 29 0 Normal
04/28/2026 10 AM PDT 95.38 30 + Normal
04/28/2026 11 AM PDT 95.38 30 0 Normal
04/28/2026 12 PM PDT 95.38 30 0 Normal
04/28/2026 01 PM PDT 95.38 30 0 Normal
04/28/2026 02 PM PDT 95.38 30 0 Normal
04/28/2026 03 PM PDT 95.38 30 0 Normal
04/28/2026 04 PM PDT 95.38 30 0 Normal
04/28/2026 05 PM PDT 95.38 30 0 Normal
04/28/2026 06 PM PDT 95.38 30 0 Normal
04/28/2026 07 PM PDT 95.37 29 - Normal
04/28/2026 08 PM PDT 95.37 29 0 Normal
04/28/2026 09 PM PDT 95.37 29 0 Normal
04/28/2026 10 PM PDT 95.37 29 0 Normal
04/28/2026 11 PM PDT 95.37 29 0 Normal
04/29/2026 12 AM PDT 95.37 29 0 Normal
04/29/2026 01 AM PDT 95.37 29 0 Normal
04/29/2026 02 AM PDT 95.37 29 0 Normal
04/29/2026 03 AM PDT 95.37 29 0 Normal
04/29/2026 04 AM PDT 95.37 29 0 Normal
04/29/2026 05 AM PDT 95.37 29 0 Normal
04/29/2026 06 AM PDT 95.36 28 - Normal
04/29/2026 07 AM PDT 95.36 28 0 Normal
04/29/2026 08 AM PDT 95.35 28 - Normal
04/29/2026 09 AM PDT 95.35 28 0 Normal
04/29/2026 10 AM PDT 95.34 27 - Normal
04/29/2026 11 AM PDT 95.34 27 0 Normal
04/29/2026 12 PM PDT 95.34 27 0 Normal
04/29/2026 01 PM PDT 95.33 27 - Normal
04/29/2026 02 PM PDT 95.33 27 0 Normal
04/29/2026 03 PM PDT 95.32 26 - Normal
04/29/2026 04 PM PDT 95.32 26 0 Normal
04/29/2026 05 PM PDT 95.31 26 - Normal
04/29/2026 06 PM PDT 95.30 25 - Normal
04/29/2026 07 PM PDT 95.30 25 0 Normal
04/29/2026 08 PM PDT 95.30 25 0 Normal
04/29/2026 09 PM PDT 95.30 25 0 Normal
04/29/2026 10 PM PDT 95.30 25 0 Normal
04/29/2026 11 PM PDT 95.31 26 + Normal
04/30/2026 12 AM PDT 95.31 26 0 Normal
04/30/2026 01 AM PDT 95.32 26 + Normal
04/30/2026 02 AM PDT 95.32 26 0 Normal
04/30/2026 03 AM PDT 95.32 26 0 Normal
04/30/2026 04 AM PDT 95.33 27 + Normal
04/30/2026 05 AM PDT 95.33 27 0 Normal
04/30/2026 06 AM PDT 95.33 27 0 Normal
04/30/2026 07 AM PDT 95.33 27 0 Normal
04/30/2026 08 AM PDT 95.33 27 0 Normal
04/30/2026 09 AM PDT 95.33 27 0 Normal
04/30/2026 10 AM PDT 95.32 26 - Normal
04/30/2026 11 AM PDT 95.32 26 0 Normal
04/30/2026 12 PM PDT 95.31 26 - Normal
04/30/2026 01 PM PDT 95.30 25 - Normal
04/30/2026 02 PM PDT 95.30 25 0 Normal
04/30/2026 03 PM PDT 95.29 24 - Normal
04/30/2026 04 PM PDT 95.29 24 0 Normal
04/30/2026 05 PM PDT 95.28 24 - Normal
04/30/2026 06 PM PDT 95.27 23 - Normal
04/30/2026 07 PM PDT 95.27 23 0 Normal
04/30/2026 08 PM PDT 95.26 22 - Normal
04/30/2026 09 PM PDT 95.26 22 0 Normal
04/30/2026 10 PM PDT 95.25 22 - Normal
04/30/2026 11 PM PDT 95.25 22 0 Normal
05/01/2026 12 AM PDT 95.25 22 0 Normal
05/01/2026 01 AM PDT 95.26 22 + Normal
05/01/2026 02 AM PDT 95.27 23 + Normal
05/01/2026 03 AM PDT 95.28 24 + Normal
05/01/2026 04 AM PDT 95.29 24 + Normal
05/01/2026 05 AM PDT 95.29 24 0 Normal
05/01/2026 06 AM PDT 95.29 24 0 Normal
05/01/2026 07 AM PDT 95.29 24 0 Normal
05/01/2026 08 AM PDT 95.29 24 0 Normal
05/01/2026 09 AM PDT 95.29 24 0 Normal
05/01/2026 10 AM PDT 95.29 24 0 Normal
05/01/2026 11 AM PDT 95.28 24 - Normal
05/01/2026 12 PM PDT 95.28 24 0 Normal
05/01/2026 01 PM PDT 95.28 24 0 Normal
05/01/2026 02 PM PDT 95.27 23 - Normal
05/01/2026 03 PM PDT 95.27 23 0 Normal
05/01/2026 04 PM PDT 95.26 22 - Normal
05/01/2026 05 PM PDT 95.26 22 0 Normal
05/01/2026 06 PM PDT 95.26 22 0 Normal
05/01/2026 07 PM PDT 95.25 22 - Normal
05/01/2026 08 PM PDT 95.25 22 0 Normal
05/01/2026 09 PM PDT 95.24 21 - Normal
05/01/2026 10 PM PDT 95.24 21 0 Normal
05/01/2026 11 PM PDT 95.23 21 - Normal
05/02/2026 12 AM PDT 95.23 21 0 Normal
05/02/2026 01 AM PDT 95.23 21 0 Normal
05/02/2026 02 AM PDT 95.22 20 - Normal
05/02/2026 03 AM PDT 95.22 20 0 Normal
05/02/2026 04 AM PDT 95.22 20 0 Normal
05/02/2026 05 AM PDT 95.22 20 0 Normal
05/02/2026 06 AM PDT 95.22 20 0 Normal
05/02/2026 07 AM PDT 95.22 20 0 Normal
05/02/2026 08 AM PDT 95.22 20 0 Normal
#
# FORECAST
#
# Date & Time (Local) Stage (Feet) Flow (cfs) Trend Forecast Status
# ---------------------------------------------------------------------------------
05/02/2026 09 AM PDT 95.22 20 Normal
05/02/2026 10 AM PDT 95.22 20 0 Normal
05/02/2026 11 AM PDT 95.22 20 0 Normal
05/02/2026 12 PM PDT 95.22 20 0 Normal
05/02/2026 01 PM PDT 95.22 20 0 Normal
05/02/2026 02 PM PDT 95.22 20 0 Normal
05/02/2026 03 PM PDT 95.22 20 0 Normal
05/02/2026 04 PM PDT 95.21 20 - Normal
05/02/2026 05 PM PDT 95.21 20 0 Normal
05/02/2026 06 PM PDT 95.21 20 0 Normal
05/02/2026 07 PM PDT 95.21 20 0 Normal
05/02/2026 08 PM PDT 95.21 20 0 Normal
05/02/2026 09 PM PDT 95.21 20 0 Normal
05/02/2026 10 PM PDT 95.21 20 0 Normal
05/02/2026 11 PM PDT 95.21 20 0 Normal
05/03/2026 12 AM PDT 95.21 20 0 Normal
05/03/2026 01 AM PDT 95.21 20 0 Normal
05/03/2026 02 AM PDT 95.21 20 0 Normal
05/03/2026 03 AM PDT 95.21 20 0 Normal
05/03/2026 04 AM PDT 95.21 20 0 Normal
05/03/2026 05 AM PDT 95.21 20 0 Normal
05/03/2026 06 AM PDT 95.21 20 0 Normal
05/03/2026 07 AM PDT 95.21 20 0 Normal
05/03/2026 08 AM PDT 95.21 20 0 Normal
05/03/2026 09 AM PDT 95.21 20 0 Normal
05/03/2026 10 AM PDT 95.20 19 - Normal
05/03/2026 11 AM PDT 95.20 19 0 Normal
05/03/2026 12 PM PDT 95.20 19 0 Normal
05/03/2026 01 PM PDT 95.20 19 0 Normal
05/03/2026 02 PM PDT 95.20 19 0 Normal
05/03/2026 03 PM PDT 95.20 19 0 Normal
05/03/2026 04 PM PDT 95.20 19 0 Normal
05/03/2026 05 PM PDT 95.20 19 0 Normal
05/03/2026 06 PM PDT 95.20 19 0 Normal
05/03/2026 07 PM PDT 95.20 19 0 Normal
05/03/2026 08 PM PDT 95.20 19 0 Normal
05/03/2026 09 PM PDT 95.20 19 0 Normal
05/03/2026 10 PM PDT 95.20 19 0 Normal
05/03/2026 11 PM PDT 95.20 19 0 Normal
05/04/2026 12 AM PDT 95.20 19 0 Normal
05/04/2026 01 AM PDT 95.20 19 0 Normal
05/04/2026 02 AM PDT 95.20 19 0 Normal
05/04/2026 03 AM PDT 95.20 19 0 Normal
05/04/2026 04 AM PDT 95.20 19 0 Normal
05/04/2026 05 AM PDT 95.20 19 0 Normal
05/04/2026 06 AM PDT 95.19 19 - Normal
05/04/2026 07 AM PDT 95.19 19 0 Normal
05/04/2026 08 AM PDT 95.19 19 0 Normal
05/04/2026 09 AM PDT 95.19 19 0 Normal
05/04/2026 10 AM PDT 95.19 19 0 Normal
05/04/2026 11 AM PDT 95.19 19 0 Normal
05/04/2026 12 PM PDT 95.19 19 0 Normal
05/04/2026 01 PM PDT 95.19 19 0 Normal
05/04/2026 02 PM PDT 95.19 19 0 Normal
05/04/2026 03 PM PDT 95.19 19 0 Normal
05/04/2026 04 PM PDT 95.19 19 0 Normal
05/04/2026 05 PM PDT 95.20 19 + Normal
05/04/2026 06 PM PDT 95.20 19 0 Normal
05/04/2026 07 PM PDT 95.21 20 + Normal
05/04/2026 08 PM PDT 95.23 21 + Normal
05/04/2026 09 PM PDT 95.24 21 + Normal
05/04/2026 10 PM PDT 95.25 22 + Normal
05/04/2026 11 PM PDT 95.25 22 0 Normal
05/05/2026 12 AM PDT 95.26 22 + Normal
05/05/2026 01 AM PDT 95.27 23 + Normal
05/05/2026 02 AM PDT 95.27 23 0 Normal
05/05/2026 03 AM PDT 95.27 23 0 Normal
05/05/2026 04 AM PDT 95.28 24 + Normal
05/05/2026 05 AM PDT 95.28 24 0 Normal
05/05/2026 06 AM PDT 95.30 25 + Normal
05/05/2026 07 AM PDT 95.34 27 + Normal
05/05/2026 08 AM PDT 95.37 29 + Normal
05/05/2026 09 AM PDT 95.40 31 + Normal
05/05/2026 10 AM PDT 95.42 32 + Normal
05/05/2026 11 AM PDT 95.44 34 + Normal
05/05/2026 12 PM PDT 95.44 34 0 Normal
05/05/2026 01 PM PDT 95.43 33 - Normal
05/05/2026 02 PM PDT 95.41 32 - Normal
05/05/2026 03 PM PDT 95.39 30 - Normal
05/05/2026 04 PM PDT 95.37 29 - Normal
05/05/2026 05 PM PDT 95.35 28 - Normal
05/05/2026 06 PM PDT 95.33 27 - Normal
05/05/2026 07 PM PDT 95.30 25 - Normal
05/05/2026 08 PM PDT 95.28 24 - Normal
05/05/2026 09 PM PDT 95.26 22 - Normal
05/05/2026 10 PM PDT 95.25 22 - Normal
05/05/2026 11 PM PDT 95.23 21 - Normal
05/06/2026 12 AM PDT 95.22 20 - Normal
05/06/2026 01 AM PDT 95.21 20 - Normal
05/06/2026 02 AM PDT 95.20 19 - Normal
05/06/2026 03 AM PDT 95.20 19 0 Normal
05/06/2026 04 AM PDT 95.19 19 - Normal
05/06/2026 05 AM PDT 95.19 19 0 Normal
05/06/2026 06 AM PDT 95.19 19 0 Normal
05/06/2026 07 AM PDT 95.18 18 - Normal
05/06/2026 08 AM PDT 95.18 18 0 Normal
05/06/2026 09 AM PDT 95.18 18 0 Normal
05/06/2026 10 AM PDT 95.18 18 0 Normal
05/06/2026 11 AM PDT 95.18 18 0 Normal
05/06/2026 12 PM PDT 95.18 18 0 Normal
05/06/2026 01 PM PDT 95.17 18 - Normal
05/06/2026 02 PM PDT 95.17 18 0 Normal
05/06/2026 03 PM PDT 95.17 18 0 Normal
05/06/2026 04 PM PDT 95.17 18 0 Normal
05/06/2026 05 PM PDT 95.17 18 0 Normal
05/06/2026 06 PM PDT 95.17 18 0 Normal
05/06/2026 07 PM PDT 95.17 18 0 Normal
05/06/2026 08 PM PDT 95.17 18 0 Normal
05/06/2026 09 PM PDT 95.17 18 0 Normal
05/06/2026 10 PM PDT 95.17 18 0 Normal
05/06/2026 11 PM PDT 95.17 18 0 Normal
05/07/2026 12 AM PDT 95.17 18 0 Normal
05/07/2026 01 AM PDT 95.17 18 0 Normal
05/07/2026 02 AM PDT 95.17 18 0 Normal
05/07/2026 03 AM PDT 95.17 18 0 Normal
05/07/2026 04 AM PDT 95.17 18 0 Normal
05/07/2026 05 AM PDT 95.17 18 0 Normal
#
# NOTE 1: Stages are rounded to the nearest hundredth (.01) of a foot.
# NOTE 2: Flows are rounded to the nearest (1) cfs.
# NOTE 3: Trends are determined using hourly change in unrounded stage and flow.
# NOTE 4: Maximum Values are determined using unrounded stage and flow.
|